Location: ??????????
(31.2156°N, 29.9553°E)
Time: 21:17:20
(UTC+00:00)

Daily predictions for brighter satellites

Satellite Brightness Start Highest point End
(mag) Time Altitude Azimuth Time Altitude Azimuth Time Altitude Azimuth
USA 234 3.5 16:10:17 10° NE 16:16:39 53° SE 16:22:59 10° SSW
Cosmos 2263 Rocket 2.2 16:11:44 10° NNW 16:17:13 58° ENE 16:22:41 10° SSE
Cosmos 968 Rocket 4.3 16:15:13 10° N 16:19:52 31° ENE 16:24:28 10° SE
Cosmos 1633 Rocket 3.0 16:16:49 10° S 16:21:13 74° E 16:25:38 10° N
Cosmos 1939 Rocket 3.8 16:19:37 10° S 16:23:22 53° W 16:27:09 10° NNW
H-2A R/B 2.5 16:18:34 10° SE 16:23:37 42° ENE 16:28:44 10° N
IRS-1C Rocket 4.2 16:21:57 10° SSE 16:27:05 55° ENE 16:32:13 10° N
SeaSat 1 2.6 16:22:30 10° NE 16:27:19 53° ESE 16:32:07 10° S
Cosmos 1437 2.6 16:24:31 10° N 16:27:23 77° W 16:30:15 10° S
Cosmos 2237 4.2 16:22:15 10° S 16:27:54 65° ESE 16:33:35 10° NNE
Meteor 1-20 Rocket 4.3 16:22:51 10° S 16:28:17 81° W 16:33:46 10° N
CZ-4 R/B 1.6 16:24:44 10° SE 16:28:20 41° ENE 16:31:59 10° N
Okean 1 4.2 16:25:08 10° NNE 16:28:40 28° E 16:32:11 10° SE
Cosmos 1707 Rocket 3.5 16:26:23 10° N 16:30:46 78° E 16:35:04 10° S
CZ-2C R/B 3.1 16:26:06 10° NNE 16:31:05 37° E 16:35:57 10° SSE
SAR-Lupe-4 3.5 16:36:55 10° NNE 16:40:27 64° ESE 16:43:59 10° S
CSL-04 Rocket 4.3 16:38:54 10° SE 16:43:51 34° ENE 16:48:46 10° N
ATLAS CENTAUR R/B 1.5 16:40:30 10° SW 16:44:06 62° WNW 16:47:42 10° NNE
SWIFT 4.4 16:42:10 10° SW 16:44:53 17° S 16:47:36 10° SE
Okean-O 2.6 16:42:12 10° SSE 16:46:31 59° ENE 16:50:53 10° N
Cosmos 2341 Rocket 4.4 16:42:23 10° SSE 16:48:15 42° E 16:54:06 10° NNE
Meteor 1-5 Rocket 4.4 16:46:38 10° SSE 16:51:35 42° E 16:56:39 10° NNE
Cosmos 2333 4.5 16:46:39 10° S 16:51:55 43° ESE 16:57:15 10° NE
Cosmos 1844 Rocket 3.9 16:47:55 10° NNE 16:52:06 21° ENE 16:54:25 17° E
Cosmos 44 Rocket 4.0 16:47:46 10° N 16:52:36 37° ENE 16:56:37 14° ESE
Cosmos 1666 3.5 16:51:38 10° SSE 16:54:49 28° E 16:58:01 10° NNE
ERS-2 2.7 16:53:51 10° N 16:57:27 61° WNW 17:01:03 10° SSW
Cosmos 2360 Rocket 2.3 16:52:35 10° SSW 16:58:13 80° WNW 17:03:53 10° NNE
HJ-1C 3.4 16:55:33 10° SSE 16:58:47 54° ENE 17:02:02 10° N
Cosmos 1470 Rocket 3.9 16:55:54 10° SSW 17:00:20 69° W 17:04:48 10° N
Cosmos 1271 Rocket 4.4 16:59:39 10° NNW 17:03:05 35° W 17:06:32 10° SSW
DELTA 2 R/B (1) 3.6 17:00:38 10° SW 17:06:09 69° SSE 17:09:40 23° ENE
Cosmos 2218 Rocket 4.5 17:01:11 10° SSE 17:06:57 37° E 17:12:45 10° NNE
Cosmos 2333 Rocket 2.4 17:02:43 10° S 17:08:06 48° ESE 17:13:32 10° NNE
Meteor 1-19 Rocket 4.3 17:05:26 10° N 17:11:20 89° W 17:17:01 10° S
Cosmos 1500 3.8 17:09:49 10° SSW 17:13:29 57° W 17:17:10 10° N
SL-08 RB Rocket 3.6 17:10:09 10° SSE 17:14:33 62° ENE 17:19:02 10° N
Meteor 2-4 Rocket 3.9 17:10:28 10° N 17:16:14 56° E 17:22:02 10° SSE
Cosmos 1703 Rocket 3.8 17:16:59 10° N 17:21:10 43° E 17:22:11 37° ESE
Cosmos 1933 Rocket 4.1 17:17:01 10° SSW 17:21:18 60° W 17:25:36 10° N
SME Rocket 3.8 17:18:10 10° NNE 17:24:39 52° E 17:29:05 10° S
Cosmos 1959 Rocket 4.4 17:23:24 10° SSE 17:29:19 56° E 17:35:16 10° NNE
Hubble Space Telescope 2.1 17:31:45 10° SW 17:34:47 26° S 17:34:47 26° S
Lacrosse 4 Rocket 1.3 17:31:45 10° SSW 17:36:04 87° ESE 17:38:01 33° NNE
Aureole 2 Rocket 4.4 17:35:12 10° NNW 17:35:38 14° NNW 17:35:38 14° NNW
COSMOS 2428 2.6 17:32:31 10° S 17:38:06 64° ESE 17:42:29 17° NNE
Cosmos 192 4.3 17:33:38 10° SSW 17:38:31 82° WNW 17:43:26 10° NNE
Helios 1A Rocket 3.8 17:34:58 10° S 17:38:54 49° W 17:42:50 10° NNW
Cosmos 2242 Rocket 3.4 17:34:26 10° N 17:38:55 87° E 17:41:41 23° S
Meteor 1-11 Rocket 3.6 17:38:57 10° S 17:44:43 76° E 17:50:23 10° NNE
CZ-3 Stage 3 2.9 17:41:14 10° W 17:44:00 38° WSW 17:44:00 38° WSW
Cosmos 2219 Rocket 2.1 17:39:50 10° SSW 17:45:24 88° WNW 17:51:02 10° NNE
GP-B 4.1 17:42:18 10° SSW 17:46:33 47° W 17:50:50 10° NNW
MetOp-A 4.0 17:45:36 41° SSE 17:47:27 72° ENE 17:52:47 10° N
ASTEX 1 4.1 17:47:28 10° N 17:50:36 40° NNE 17:50:36 40° NNE
USA 238 DEB 3.8 17:47:55 10° S 17:53:17 47° SE 17:53:17 47° SE
USA 238 3.8 17:48:01 10° S 17:53:19 47° SE 17:53:19 47° SE
Delta 7925 Rocket 3.8 17:52:45 10° WSW 17:56:49 44° SSW 17:56:49 44° SSW
USA 234 4.5 17:53:33 10° NNE 17:59:25 37° NW 18:05:17 10° WSW
Delta 2 Rocket 4.1 17:59:52 10° WSW 18:05:40 50° S 18:05:40 50° S
Meteor 1-13 Rocket 4.1 18:00:03 10° N 18:05:58 81° E 18:05:58 81° E
Okean 1-7 3.9 18:04:27 10° NNW 18:08:37 47° W 18:08:47 47° W
CZ-3A R/B 3.3 17:56:29 10° WSW 18:09:35 47° S 18:09:40 47° S
NOSS 3-2 (A) 3.9 18:20:58 10° SW 18:24:44 46° SW 18:24:44 46° SW
Cosmos 1844 Rocket 3.7 18:30:55 10° NW 18:36:05 40° WSW 18:36:09 40° WSW
